Tracking 25620 objects as of 18-May-2022
HD Live streaming from Space Station
objects crossing your sky now

COSMOS 2251 DEB

Track COSMOS 2251 DEB now!
10-day predictions


NORAD ID: 35717
Int'l Code: 1993-036AQN
Perigee: 747.8 km
Apogee: 882.0 km
Inclination: 74.2 °
Period: 101.0 minutes
Semi major axis: 7185 km
RCS: 0.003 m2 (small)
Launch date: June 16, 1993
Source: Commonwealth of Independent States (former USSR) (CIS)
Launch site: PLESETSK MISSILE AND SPACE COMPLEX (PKMTR)

Note: This is SATELLITE DEBRIS
aabbcc
Your satellite tracking list
Your tracking list is empty




NASA's NSSDC Master Catalog

Two Line Element Set (TLE):
1 35717U 93036AQN 22137.52763903  .00002582  00000-0  10594-2 0  9992
2 35717  74.1688  54.9646 0093353 273.1664  85.8805 14.25223992667850
Source of the keplerian elements: AFSPC